Hourly Data Report for March 16, 2021

KUGAARUK CLIMATE
NUNAVUT
Current Station Operator: ECCC - MSC

68°32'15.060" N
89°47'47.020" W
15.80 m
2303094
71407
NBB

Download Data

Hourly Data (March 2021)
Hourly Data Report for March 16, 2021
TIME
LST
Temp Definition
°C
Dew Point Definition
°C
Rel Hum Definition
%
Precip. Amount Definition
mm

Wind Dir Definition
10's deg

Wind Spd Definition
km/h
Visibility Definition
km
Stn Press Definition
kPa
Hmdx Definition


Wind Chill Definition


Weather Definition


00:00 -26.9 -30.3 73 0.0 24 23   100.82   -40 LegendNANA
01:00 -26.4 -29.8 73 0.0 26 14   100.72   -37 LegendNANA
02:00 -26.0 -30.8 64 0.0 23 19   100.66   -38 LegendNANA
03:00 -26.5 -30.9 67 0.0 24 20   100.56   -39 LegendNANA
04:00 -26.6 -30.9 67 0.0 24 26   100.50   -40 LegendNANA
05:00 -26.9 -31.1 67 0.0 27 17   100.44   -38 LegendNANA
06:00 -27.2 -31.4 67 0.0 28 7   100.41   -34 LegendNANA
07:00 -26.5 -31.3 64 0.0 19 3   100.39   -30 LegendNANA
08:00 -25.3 -29.7 67 0.4 25 10   100.33   -34 LegendNANA
09:00 -25.0 -29.4 67 0.0 26 4   100.32   -29 LegendNANA
10:00 -24.6 -29.0 67 0.2 28 6   100.32   -30 LegendNANA
11:00 -24.1 -29.0 64 0.0 27 8   100.32   -31 LegendNANA
12:00 -24.6 -29.9 61 0.2 25 10   100.33   -33 LegendNANA
13:00 -24.6 -29.5 64 0.0 26 10   100.30   -33 LegendNANA
14:00 -25.0 -30.0 63 0.0 25 5   100.30   -30 LegendNANA
15:00 -25.7 -30.4 65 0.0 24 11   100.31   -34 LegendNANA
16:00 -26.2 -30.2 69 0.0 25 8   100.34   -34 LegendNANA
17:00 -26.5 -30.2 71 0.0 21 8   100.37   -34 LegendNANA
18:00 -26.2 -30.3 68 0.4 26 15   100.39   -37 LegendNANA
19:00 -25.3 -29.6 67 0.0 27 16   100.42   -36 LegendNANA
20:00 -26.1 -30.0 69 0.0 25 20   100.44   -38 LegendNANA
21:00 -26.1 -30.1 69 0.0 25 13   100.45   -36 LegendNANA
22:00 -25.9 -30.1 68 0.0 24 19   100.48   -38 LegendNANA
23:00 -27.0 -30.9 70 0.0 25 17   100.51   -38 LegendNANA

Notes on Data Quality.

Legend

  • E = Estimated
  • M = Missing
  • NA = Not Available*
  • [empty] = Indicates an unobserved value
Date modified: